Flag Weather past 2 weeks in Malmö, Sweden

Now
41 °F

Clear.


Feels Like: 34 °F
Forecast: 37 / 39 °F
Wind: 12 mph from Southeast

Location: Malmo / Sturup

Current Time: Nov 28, 2014 at 1:21:29 AM

Latest Report: Nov 28, 2014 at 12:50 AM


Visibility: 10 mi

Pressure: 30.15 "Hg

Humidity: 81%

Dew point: 36 °F

Location of MalmöLocation

Historic Weather in Malmö — Graph

°F

Malmö temperature yesterday

Maximum temperature yesterday: 45 °F (at 11:20 AM)
Minimum temperature yesterday: 34 °F (at 4:50 AM)
Average temperature yesterday: 39 °F

Past Weeks' High & Low Weather Summary

 TemperatureHumidityPressure
High50 °F (Nov 13, 12:20 AM)100% (Nov 14, 10:50 AM)30.36 "Hg (Nov 14, 10:50 AM)
Low34 °F (Nov 27, 4:50 AM)66% (Nov 27, 11:50 AM)29.74 "Hg (Nov 16, 5:20 PM)
Average44 °F91%30.10 "Hg
* Reported Nov 13 12:20 AM — Nov 28 12:20 AM, Malmö, Weather by CustomWeather, © 2014

Note: Actual official high and low records may vary slightly from our data, if they occured in-between our weather recording intervals... More about our weather records

Advertising

Malmö weather history for previous 24 hours

 ConditionsComfort  
Time TempWeatherWind HumidityBarometerVisibility
12:20 AM
Nov 28
41 °FClear.10 mph81%30.15 "Hg10 mi
11:50 PM
Nov 27
39 °FClear.9 mph81%30.15 "Hg10 mi
11:20 PM39 °FClear.8 mph87%30.15 "Hg10 mi
10:50 PM39 °FClear.9 mph81%30.15 "Hg10 mi
10:20 PM37 °FClear.9 mph87%30.15 "Hg10 mi
9:50 PM37 °FClear.9 mph87%30.15 "Hg10 mi
9:20 PM37 °FClear.10 mph87%30.15 "Hg10 mi
8:50 PM37 °FClear.8 mph87%30.15 "Hg10 mi
8:20 PM37 °FClear.9 mph87%30.15 "Hg10 mi
7:50 PM37 °FClear.10 mph87%30.12 "Hg10 mi
7:20 PM37 °FClear.12 mph87%30.12 "Hg10 mi
6:50 PM37 °FClear.10 mph93%30.12 "Hg10 mi
6:20 PM37 °FClear.8 mph87%30.12 "Hg10 mi
5:50 PM37 °FClear.9 mph93%30.12 "Hg10 mi
5:20 PM37 °FFog.9 mph93%30.12 "Hg6 mi
4:50 PM39 °FPassing clouds.9 mph87%30.12 "HgN/A
4:20 PM39 °FPassing clouds.9 mph87%30.12 "HgN/A
3:50 PM41 °FPassing clouds.10 mph81%30.12 "HgN/A
3:20 PM41 °FPassing clouds.12 mph81%30.09 "HgN/A
2:50 PM43 °FScattered clouds.10 mph76%30.09 "HgN/A
2:20 PM43 °FPartly sunny.15 mph81%30.09 "HgN/A
1:50 PM43 °FScattered clouds.13 mph76%30.09 "HgN/A
1:20 PM45 °FScattered clouds.10 mph66%30.12 "HgN/A
12:50 PM45 °FScattered clouds.10 mph66%30.12 "HgN/A
12:20 PM45 °FPassing clouds.12 mph66%30.12 "HgN/A
11:50 AM45 °FSunny.13 mph66%30.12 "Hg10 mi
11:20 AM45 °FPassing clouds.10 mph71%30.12 "HgN/A
10:50 AM41 °FScattered clouds.6 mph81%30.12 "HgN/A
10:20 AM39 °FScattered clouds.7 mph87%30.12 "HgN/A
9:50 AM39 °FPartly sunny.7 mph87%30.12 "HgN/A
9:20 AM39 °FPartly sunny.6 mph87%30.12 "HgN/A
8:50 AM37 °FScattered clouds.6 mph93%30.12 "HgN/A
8:20 AM39 °FScattered clouds.6 mph87%30.12 "HgN/A
7:50 AM39 °FPartly cloudy.6 mph87%30.12 "HgN/A
7:20 AM37 °FPartly cloudy.6 mph93%30.12 "HgN/A
6:50 AM37 °FPassing clouds.7 mph87%30.12 "HgN/A
6:20 AM37 °FMostly cloudy.5 mph87%30.12 "HgN/A
5:50 AM36 °FPassing clouds.6 mph93%30.12 "HgN/A
5:20 AM36 °FPassing clouds.6 mph93%30.12 "HgN/A
4:50 AM34 °FClear.5 mph100%30.12 "Hg10 mi
4:20 AM36 °FClear.6 mph93%30.12 "Hg10 mi
3:50 AM37 °FClear.6 mph87%30.15 "Hg10 mi
3:20 AM39 °FPassing clouds.6 mph87%30.15 "HgN/A
2:50 AM43 °FPassing clouds.5 mph81%30.15 "HgN/A
2:20 AM41 °FOvercast.6 mph87%30.15 "HgN/A
1:50 AM41 °FOvercast.6 mph87%30.15 "HgN/A
1:20 AM41 °FOvercast.6 mph87%30.15 "HgN/A
Weather by CustomWeather, © 2014

See weather overviewHow to use our weather pages